Regional Weather Roundup
Issued by NWS

Home | Current Version | Previous Version | Graphics & Text | Print | Product List | Glossary On
Versions: 1 2 3 4 5 6 7 8 9 10 11 12 13 14 15 16 17 18 19 20 21 22 23 24 25 26 27 28 29 30 31 32 33 34 35 36 37 38 39 40 41 42 43 44 45 46 47 48 49 50
000
ASUS43 KDTX 301901
RWRMI
MICHIGAN HOURLY REGIONAL WEATHER ROUNDUP
NATIONAL WEATHER SERVICE DETROIT/PONTIAC MI
300 PM EDT SAT JUL 30 2016

NOTE: "FAIR" INDICATES FEW OR NO CLOUDS BELOW 12,000 FEET WITH NO
SIGNIFICANT WEATHER AND/OR OBSTRUCTION TO VISIBILITY.

MIZ047>049-052>055-059>063-066>070-074>076-081>083-302000-
SOUTHEAST LOWER MICHIGAN

CITY           SKY/WX    TMP DP  RH WIND       PRES   REMARKS
ADRIAN         SUNNY     81  68  64 E9        29.97F
ALMA           CLOUDY    72  66  82 NE9       30.03S
ANN ARBOR      PTSUNNY   73  68  84 N9        29.98F
BAD AXE        CLOUDY    71  62  73 E8        30.05S
CARO           CLOUDY    71  64  78 E6        30.03S
DETROIT CITY   CLOUDY    75  67  76 N10       29.97F
DETROIT        PTSUNNY   78  66  66 N10       29.97F
FLINT          CLOUDY    72  66  81 NE12      30.01F
GROSSE ILE     CLOUDY    76  72  87 NE9       29.96F
HILLSDALE      CLOUDY    73  68  82 NE9       29.98F
HOWELL         CLOUDY    71  68  90 N3        30.00F

CITY           SKY/WX    TMP DP  RH WIND       PRES   REMARKS
JACKSON        CLOUDY    74  69  85 NE6       29.99F
LAMBERTVILLE   PTSUNNY   75  69  81 E3        29.97F
LANSING        CLOUDY    69  64  84 NE7       30.01F
LAPEER         RAIN      70  65  85 NE5       30.02F
MASON          CLOUDY    69  65  84 NE6       30.01S
MONROE         CLOUDY    79  71  76 NE8       29.95F
MT. CLEMENS    CLOUDY    74  67  79 N12       29.96F
PONTIAC        DRIZZLE   70  66  87 NE6       29.99F
PORT HOPE        N/A     71  61  70 E13       30.04F
PORT HURON     CLOUDY    73  64  73 N7        30.00S
TRI CITIES     CLOUDY    71  65  81 NE15      30.04S
MIDLAND        CLOUDY    73  62  68 NE8G16    30.03F
TROY           HVY RAIN  72  67  83 NE6       30.00F
SAGINAW HB     CLOUDY    72  63  73 NE9       30.02S
$$
MIZ043>046-050>051-056>058-064>065-071>073-077>080-302000-
SOUTHWEST LOWER MICHIGAN

CITY           SKY/WX    TMP DP  RH WIND       PRES   REMARKS
BATTLE CREEK   CLOUDY    68  67  96 NE9       30.00S
BENTON HARBOR  MOSUNNY   76  66  71 N8        29.98S
BIG RAPIDS     CLOUDY    69  65  89 E10       30.04F
COLDWATER      PTSUNNY   76  68  78 SE3       29.98F
FREMONT        CLOUDY    73  67  82 E7        30.02S
HOLLAND        CLOUDY    74  64  71 NE7       30.01S
GRAND RAPIDS   CLOUDY    69  65  86 NE9       30.02S
IONIA          LGT RAIN  66  63  90 NE8       30.01F
KALAMAZOO      CLOUDY    71  66  84 VRB5      29.99S
LUDINGTON      PTSUNNY   76  60  56 CALM      30.01F
MARSHALL       CLOUDY    72  71  96 N3        29.98F
MOUNT PLEASANT CLOUDY    72  63  73 NE9       30.03F
MUSKEGON       CLOUDY    76  64  66 NE9       30.01S
SOUTH HAVEN    CLOUDY    74  67  79 NE5       29.99S
$$
MIZ016>042-302000-
NORTHERN LOWER MICHIGAN

CITY           SKY/WX    TMP DP  RH WIND       PRES   REMARKS
ALPENA         SUNNY     77  49  37 E10       30.09S
BEAVER ISLAND  SUNNY     77  52  41 NE10G18   30.08S
BELLAIRE       PTSUNNY   82  48  30 NE7       30.04S
CADILLAC       PTSUNNY   75  59  57 E5        30.05F
CHARLEVOIX     MOSUNNY   79  50  35 NE12G20   30.08S
FRANKFORT      SUNNY     81  51  35 SE3       30.02F
GAYLORD        MOSUNNY   78  47  33 E10G23    30.07F
GRAYLING       MOSUNNY   82  49  32 SE3       30.06F
HARBOR SPRINGS SUNNY     78  50  37 NE13G22   30.06F
HOUGHTON LAKE  MOSUNNY   75  58  55 SE10      30.06F
MANISTEE       MOSUNNY   79  57  46 E7        30.01F
OSCODA         MOSUNNY   74  58  58 NE15G21   30.06F
PELLSTON       SUNNY     78  45  30 E12G20    30.08F
ROGERS CITY    SUNNY     76  48  38 E14G22    30.10F
TRAVERSE CITY  PTSUNNY   82  52  35 N9        30.01F
$$
MIZ007>008-015-302000-
EASTERN UPPER MICHIGAN

CITY           SKY/WX    TMP DP  RH WIND       PRES   REMARKS
KINROSS        SUNNY     77  53  43 SE12      30.09F
MACKINAC ISLAN SUNNY     73  55  52 E9        30.09F
S. S. MARIE    MOSUNNY   79  53  40 SE9       30.08F
$$
MIZ004>006-011>014-085-302000-
CENTRAL UPPER MICHIGAN

CITY           SKY/WX    TMP DP  RH WIND       PRES   REMARKS
MANISTIQUE     SUNNY     76  57  52 SE9       30.08S
ESCANABA       SUNNY     75  55  50 SE9       30.07F
MENOMINEE      SUNNY    N/A N/A N/A NE10      30.08F
SAWYER-GWINN   MOSUNNY   75  46  35 SE6       30.09F
$$
MIZ001>003-009>011-084-302000-
WESTERN UPPER MICHIGAN

CITY           SKY/WX    TMP DP  RH WIND       PRES   REMARKS
IRON MOUNTAIN  PTSUNNY   78  48  34 S8        30.07F
HOUGHTON       SUNNY     77  55  46 VRB5      30.07F
COPPER HARBOR    N/A     76  54  46 VRB7      30.07F
IRONWOOD       PTSUNNY   75  63  64 N7        30.04S
$$

ABBREVIATIONS USED IN REMARKS
   TC - TEMPERATURE IN CELSIUS
  WCI - WIND CHILL INDEX
   HX - HEAT INDEX
  VSB - VISIBILITY




USA.gov is the U.S. government's official web portal to all federal, state and local government web resources and services.